Regional Weather Roundup
Issued by NWS

Home | Current Version | Previous Version | Text Only | Print | Product List | Glossary Off
Versions: 1 2 3 4 5 6 7 8 9 10 11 12 13 14 15 16 17 18 19 20 21 22 23 24 25 26 27 28 29 30 31 32 33 34 35 36 37 38 39 40 41 42 43 44 45 46 47 48 49 50

942
ASUS45 KABQ 171101
RWRNM
NEW MEXICO REGIONAL WEATHER ROUNDUP
NATIONAL WEATHER SERVICE ALBUQUERQUE NM
400 AM MST TUE JAN 17 2017

NOTE: "FAIR" MEANS FEW OR NO CLOUDS BELOW 12,000 FEET AGL WITH NO
       SIGNIFICANT WEATHER OR OBSTRUCTIONS TO VISION.

      THIS PRODUCT IS RELEASED AS TWO VERSIONS.  ONE VERSION NEAR
      THE TOP OF THE HOUR CONTAINING PRELIMINARY DATA FROM ALBUQUERQUE
      AND OTHER STATIONS.  A FINAL VERSION WITH ADDITIONAL DATA IS
      ISSUED ABOUT 10 MINUTES AFTER THE HOUR.

NMZ501-503-504-510>518-171200-
NORTHWEST PLATEAU/NORTHCENTRAL MOUNTAINS

CITY           SKY/WX    TMP DP  RH WIND       PRES   REMARKS
FARMINGTON     CLOUDY    33  32  96 CALM      30.11S
LOS ALAMOS     LGT SNOW  31  31 100 S3        30.13S
SANTA FE       CLOUDY    33  31  92 S7        30.12S WCI  27
TAOS           CLOUDY    32  25  74 CALM      30.12S
ANGEL FIRE     CLOUDY    26  24  93 CALM      30.10F

$$
NMZ402-403-502-505>509-171200-
WESTCENTRAL MOUNTAINS/SOUTHWEST MOUNTAINS

CITY           SKY/WX    TMP DP  RH WIND       PRES   REMARKS
GALLUP         CLOUDY    30  28  92 E6        30.09F WCI  24
GRANTS         FOG       33  33  99 E5        30.11F VSB 1/2 WCI  28
SILVER CITY    FAIR      28  27  94 N7        30.06F WCI  21

$$
NMZ407-409-411-412-171200-
SOUTHERN DESERTS

CITY           SKY/WX    TMP DP  RH WIND       PRES   REMARKS
DEMING         FAIR      34  33  96 CALM      30.04F
LAS CRUCES     FAIR      36  35  96 NW6       30.05F WCI  31
HOLLOMAN AFB   FAIR      36  35  97 N8        30.08F WCI  30
ALAMOGORDO     FAIR      39  32  75 N8        30.06F WCI  34
T OR C         FAIR      37  34  89 N5        30.07S WCI  33

$$
NMZ519>523-171200-
CENTRAL VALLEYS/CENTRAL HIGHLANDS

CITY           SKY/WX    TMP DP  RH WIND       PRES   REMARKS
ALBUQUERQUE    CLOUDY    40  34  79 E9        30.11S WCI  34
DOUBLE EAGLE   CLOUDY    36  35  96 W7        30.12S WCI  30
MORIARTY ARPT  CLOUDY    33  31  93 CALM      30.14S
CLINES CORNERS FOG       29  27  92 E8        30.12F VSB 3/4 WCI  21
BELEN          CLOUDY    39  39 100 W3        30.10F
SOCORRO        CLOUDY    39  37  90 CALM      30.09F

$$
NMZ524>526-539-540-171200-
SOUTHCENTRAL MOUNTAINS

CITY           SKY/WX    TMP DP  RH WIND       PRES   REMARKS
RUIDOSO        NOT AVBL

$$
NMZ527>531-171200-
NORTHEAST HIGHLANDS/NORTHEAST PLAINS

CITY           SKY/WX    TMP DP  RH WIND       PRES   REMARKS
LAS VEGAS      CLOUDY    26  24  92 S5        30.12S WCI  20
RATON          FAIR      20  16  84 NE5       30.10S WCI  13
CLAYTON        CLOUDY    32  32 100 W5        30.12S WCI  27

$$
NMZ532>537-171200-
EASTCENTRAL PLAINS

CITY           SKY/WX    TMP DP  RH WIND       PRES   REMARKS
TUCUMCARI      FAIR      35  31  85 NE5       30.14F WCI  31
CANNON AFB     MOCLDY    32  32 100 N10       30.13F WCI  24
CLOVIS AIRPORT MOCLDY    30  27  86 N9        30.14S WCI  22

$$
NMZ028-029-538-171200-
SOUTHEAST PLAINS

CITY           SKY/WX    TMP DP  RH WIND       PRES   REMARKS
ROSWELL        CLOUDY    42  33  70 N6        30.15S
ARTESIA        CLOUDY    39  39 100 N10       30.16R WCI  32
CARLSBAD       FAIR      38  37  97 N10       30.14R WCI  31


$$




USA.gov is the U.S. government's official web portal to all federal, state and local government web resources and services.